Flag for China Weather past 2 weeks in Dalian, Liaoning, China

Now
41 °F

Drizzle. Fog.


Feels Like: 36 °F
Forecast: 44 / 49 °F
Wind: 8 mph from East

Location: Dalian Airport

Current Time: Mar 30, 2015 at 11:00:56 PM

Latest Report: Mar 30, 2015 at 10:30 PM


Visibility: 0 mi

Pressure: 29.95 "Hg

Humidity: 100%

Dew point: 41 °F

Location of DalianLocation

Historic Weather in Dalian — Graph

°F

Dalian temperature yesterday

Maximum temperature yesterday: 61 °F (at 1:30 PM)
Minimum temperature yesterday: 39 °F (at 7:00 PM)
Average temperature yesterday: 48 °F

Past Weeks' High & Low Weather Summary

 TemperatureHumidityPressure
High64 °F (Mar 19, 11:30 AM)100% (Mar 16, 4:00 AM)30.57 "Hg (Mar 16, 4:00 AM)
Low30 °F (Mar 23, 12:30 AM)9% (Mar 21, 4:00 PM)29.89 "Hg (Mar 18, 3:00 PM)
Average47 °F51%30.17 "Hg
* Reported Mar 15 9:00 PM — Mar 30 9:30 PM, Dalian, Weather by CustomWeather, © 2015

Note: Actual official high and low records may vary slightly from our data, if they occured in-between our weather recording intervals... More about our weather records

Advertising

Dalian weather history for previous 24 hours

 ConditionsComfort  
Time TempWeatherWind HumidityBarometerVisibility
9:30 PM
Mon, Mar 30
41 °FDrizzle. Fog.10 mph100%29.95 "Hg0 mi
9:00 PM41 °FDrizzle. Fog.10 mph100%29.95 "Hg0 mi
8:30 PM41 °FDrizzle. Fog.10 mph100%29.95 "Hg1 mi
8:00 PM41 °FDrizzle. Fog.13 mph100%29.95 "Hg1 mi
7:30 PM41 °FFog.15 mph100%29.95 "Hg1 mi
7:00 PM41 °FFog.15 mph100%29.95 "Hg1 mi
6:30 PM43 °FFog.13 mph100%29.92 "Hg1 mi
6:00 PM43 °FFog.13 mph100%29.95 "Hg1 mi
5:30 PM43 °FFog.10 mph100%29.92 "Hg1 mi
5:00 PM43 °FFog.13 mph100%29.92 "Hg1 mi
4:30 PM43 °FFog.17 mph100%29.92 "Hg1 mi
4:00 PM43 °FFog.15 mph100%29.92 "Hg1 mi
3:30 PM45 °FFog.17 mph93%29.89 "Hg1 mi
3:00 PM46 °FFog.15 mph87%29.92 "Hg2 mi
2:30 PM46 °FFog.15 mph82%29.92 "Hg2 mi
2:00 PM48 °FFog.15 mph76%29.92 "Hg3 mi
1:30 PM48 °FFog.15 mph76%29.92 "Hg3 mi
1:00 PM50 °FFog.10 mph71%29.95 "Hg3 mi
12:30 PM52 °FFog.8 mph67%29.95 "Hg3 mi
12:00 PM50 °FFog.10 mph71%29.98 "Hg3 mi
11:30 AM50 °FFog.10 mph71%29.98 "Hg2 mi
10:30 AM48 °FFog.13 mph76%30.01 "Hg2 mi
10:00 AM46 °FFog.10 mph82%30.01 "Hg2 mi
9:30 AM46 °FFog.10 mph82%30.01 "Hg1 mi
9:00 AM45 °FFog.13 mph87%30.01 "Hg1 mi
8:30 AM43 °FFog.13 mph93%30.01 "Hg1 mi
8:00 AM43 °FFog.10 mph100%30.01 "Hg1 mi
7:00 AM43 °FFog.10 mph93%30.01 "Hg1 mi
6:30 AM43 °FFog.8 mph93%30.01 "Hg1 mi
6:00 AM41 °FFog.10 mph93%29.98 "Hg1 mi
5:00 AM41 °FFog.10 mph93%29.98 "Hg0 mi
4:30 AM41 °FFog.10 mph93%29.98 "Hg0 mi
4:00 AM41 °FFog.10 mph93%29.98 "Hg0 mi
3:30 AM41 °FFog.8 mph93%29.98 "Hg0 mi
3:00 AM41 °FFog.8 mph93%29.98 "Hg0 mi
2:30 AM41 °FFog.6 mph100%29.98 "Hg0 mi
2:00 AM41 °FFog.8 mph100%29.98 "Hg0 mi
1:30 AM41 °FFog.8 mph100%29.98 "Hg0 mi
1:00 AM41 °FFog.6 mph100%29.98 "Hg1 mi
12:30 AM43 °FFog.6 mph100%29.98 "Hg1 mi
12:00 AM41 °FFog.6 mph100%29.98 "Hg1 mi
11:30 PM
Sun, Mar 29
41 °FFog.6 mph100%30.01 "Hg1 mi
11:00 PM41 °FFog.3 mph100%30.01 "Hg1 mi
Weather by CustomWeather, © 2015

See weather overviewHow to use our weather pages